Simultaneous Nadir Overpasses (SNOs) Predictions

Prediction of SNOs between METOP-A and NOAA-19 Satellite Orbit:

Table of predicted SNOs for the next 14.0 days since TLE Epoch: 5/5/2017
Index Date (METOP-A) Time (METOP-A) Lat,Lon (METOP-A) SZA (METOP-A ) Date (NOAA-19) Time (NOAA-19) Lat,Lon (NOAA-19) SZA (NOAA-19 ) Distance(km) Time Diff (sec)
1 05/07/2017 12:15:21 -77.48,-178.40 119.46 05/07/2017 12:14:13 -77.48, 178.89 119.52 65.32 68
2 05/07/2017 13:06:08 77.18, -12.39 60.20 05/07/2017 13:05:03 77.20, -12.48 60.22 2.85 65
3 05/07/2017 13:56:50 -77.16, 154.87 119.83 05/07/2017 13:56:07 -77.17, 154.87 119.82 0.87 43
4 05/07/2017 14:47:30 77.16, -37.81 60.16 05/07/2017 14:47:04 77.17, -37.86 60.17 1.69 26
5 05/07/2017 15:38:12 -77.15, 129.45 119.87 05/07/2017 15:38:08 -77.15, 129.49 119.87 0.97 4
6 05/07/2017 16:28:52 77.14, -63.23 60.12 05/07/2017 16:29:05 77.15, -63.25 60.13 0.55 13
7 05/07/2017 17:19:34 -77.13, 104.03 119.91 05/07/2017 17:20:09 -77.12, 104.10 119.91 1.98 35
8 05/07/2017 18:10:14 77.12, -88.65 60.08 05/07/2017 18:11:06 77.12, -88.64 60.09 0.59 52
9 05/07/2017 19:00:56 -77.11, 78.61 119.95 05/07/2017 19:02:10 -77.09, 78.72 119.95 3.11 74
10 05/18/2017 06:43:21 -77.21, -96.59 122.41 05/18/2017 06:42:09 -77.23, -96.60 122.40 1.97 72
11 05/18/2017 07:34:01 77.21, 70.73 57.58 05/18/2017 07:33:04 77.20, 70.82 57.57 2.60 57
12 05/18/2017 08:24:43 -77.19,-122.01 122.45 05/18/2017 08:24:10 -77.20,-121.99 122.44 1.39 33
13 05/18/2017 09:15:23 77.19, 45.30 57.54 05/18/2017 09:15:06 77.21, 45.24 57.57 3.14 17
14 05/18/2017 10:06:05 -77.17,-147.43 122.49 05/18/2017 10:06:11 -77.18,-147.37 122.48 1.52 6
15 05/18/2017 10:56:45 77.17, 19.88 57.51 05/18/2017 10:57:07 77.19, 19.85 57.53 2.16 22
16 05/18/2017 11:47:27 -77.15,-172.85 122.52 05/18/2017 11:48:12 -77.15,-172.76 122.52 2.24 45
17 05/18/2017 12:38:07 77.15, -5.54 57.47 05/18/2017 12:39:08 77.16, -5.53 57.49 1.36 61
18 05/18/2017 13:28:59 -76.70, 159.96 123.03 05/18/2017 13:30:04 -76.75, 163.50 122.89 90.62 65




NCC Satellite Simultaneous Nadir Overpasses (SNOs) Prediction Service
